Simultaneous Nadir Overpasses (SNOs) Predictions

Prediction of SNOs between AQUA and GOES-15 Satellite Orbit:

Table of predicted SNOs for the next 14.0 days since TLE Epoch: 8/17/2013
Index Date Time (AQUA) AQUA Lat,Lon GOES-15 Lat,Lon Distance(km) Time Diff (sec)
1 08/17/2013 10:20:05 -1.09,-131.27 -0.32,-135.01 424.23 80
2 08/17/2013 22:41:29 0.03,-136.47 0.33,-134.98 169.57 80
3 08/19/2013 22:29:16 0.61,-133.50 0.33,-134.90 159.02 80
4 08/20/2013 10:50:31 0.48,-138.66 -0.33,-134.90 427.78 80
5 08/21/2013 22:17:04 1.27,-130.55 0.33,-134.83 487.52 80
6 08/22/2013 10:38:19 -0.18,-135.70 -0.34,-134.82 99.38 80
7 08/24/2013 10:26:06 -0.79,-132.74 -0.34,-134.75 228.89 80
8 08/24/2013 22:47:30 -0.32,-137.93 0.34,-134.71 365.30 80
9 08/26/2013 22:35:16 0.25,-134.96 0.34,-134.63 37.64 80
10 08/28/2013 22:23:03 0.90,-132.00 0.34,-134.54 289.55 80
11 08/29/2013 10:44:18 0.19,-137.15 -0.34,-134.53 297.39 80




NCC Satellite Simultaneous Nadir Overpasses (SNOs) Prediction Service
